{"data":{"norad_id":52862,"intl_designator":"2022-062AJ","name":"STARLINK-4010","alt_names":[],"object_type":"PAYLOAD","status":"ACTIVE","operator":null,"country":"US","launch_date":"2022-06-17","launch_site_code":"AFETR","launch_vehicle":null,"mission":null,"orbit_class":"UNKNOWN","rcs_meters":null,"size_class":null,"mass_kg":null,"dimensions":null,"purposes":["comms"],"wikipedia_slug":null,"has_3d_model":false,"image_url":null,"decayed_at":null,"tle_current":{"epoch":"2026-05-25T02:45:17.431776Z","epoch_age_seconds":65191,"freshness":"FRESH","line1":"1 52862U 22062AJ  26145.11478509  .00000304  00000+0  37202-4 0  9992","line2":"2 52862  53.2128  41.0317 0001319 119.1236 240.9888 15.08836399217460","mean_motion":15.08836399,"eccentricity":0.0001319,"inclination_deg":53.2128,"raan_deg":41.0317,"arg_perigee_deg":119.1236,"mean_anomaly_deg":240.9888,"bstar":3.7202e-5,"rev_number":21746,"period_min":95.437782449733,"perigee_km":538.84192592729,"apogee_km":540.6668656775,"semimajor_km":6917.8913958024,"source":"CELESTRAK","updated_at":"2026-05-25T13:38:17.247623Z"}}}